Wind_Speed
17 18 18 19 20 22 24 25 26 26 28 30 30 29 28 26 25 25 24 23 23 22 21 19 18 16 16 15 15 14 13 13 12 12 12 12 12 13 13 13 14 14 13
17 17 18 18 19 20 22 24 25 27 27 30 31 31 30 28 27 26 25 25 23 22 22 20 19 18 17 17 16 15 14 14 14 13 13 13 13 14 14 14 14 13 13
17 16 16 17 18 18 20 22 24 26 27 28 30 31 31 30 28 27 27 26 25 24 23 22 21 20 19 19 18 17 16 15 15 15 15 14 15 15 15 15 14 14 14
17 16 16 16 16 17 18 20 22 24 26 27 29 30 30 31 30 28 27 28 27 26 24 23 22 21 20 20 19 18 17 17 17 16 16 15 16 16 16 16 15 15 15
17 17 15 14 14 15 16 18 20 22 24 26 28 29 30 31 31 30 28 28 28 27 25 24 23 22 22 21 20 20 19 18 18 18 17 17 17 17 17 17 17 16 16
17 16 14 14 13 14 15 16 18 20 23 25 26 27 29 29 30 31 29 28 28 28 26 25 24 23 22 22 22 21 20 20 19 19 18 18 18 18 18 18 18 17 17
17 16 14 13 12 12 13 14 16 18 20 23 25 26 27 28 29 30 29 28 28 28 27 26 26 25 24 24 24 23 22 21 21 20 20 19 19 19 19 19 19 19 19
17 16 15 13 12 11 11 12 14 17 18 19 22 25 27 28 28 29 29 28 28 29 29 28 26 27 26 25 25 25 24 23 23 22 22 21 21 21 21 20 20 20 20
17 16 15 13 11 10 9 10 12 14 16 17 20 22 25 27 27 29 29 29 29 29 29 29 28 27 26 27 27 26 26 25 25 24 23 23 22 23 22 22 21 21 21
16 16 14 12 10 8 7 7 9 11 13 15 18 20 22 25 26 27 28 29 29 29 29 29 29 28 27 27 28 28 28 27 26 26 25 24 24 24 24 23 23 23 22
17 16 14 12 9 7 5 5 6 8 10 13 16 18 21 23 24 25 27 28 28 28 28 29 30 29 29 28 28 29 30 29 28 27 27 26 26 26 25 25 24 24 24
17 16 14 12 9 6 4 3 4 6 8 9 12 15 18 20 23 24 25 27 28 27 28 28 29 29 29 29 29 30 30 30 30 29 28 28 27 27 27 27 26 27 26
17 16 15 12 9 6 4 2 2 5 6 8 9 12 15 18 21 22 23 25 26 26 26 27 28 29 29 29 29 30 31 30 30 30 29 29 29 29 29 29 28 28 28
17 16 15 13 10 7 5 3 1 2 4 6 8 10 12 15 18 20 21 22 23 25 25 27 27 28 28 29 29 29 30 31 30 30 30 30 30 30 30 30 30 30 30
17 16 15 13 11 8 6 4 2 0 2 4 6 8 10 13 15 17 18 19 21 23 24 25 26 27 28 28 28 28 29 30 30 30 31 31 31 31 31 31 32 32 32
17 16 15 14 12 9 7 5 3 1 1 3 5 7 9 11 13 16 17 18 20 22 23 23 24 25 26 26 27 27 28 29 29 30 30 31 32 32 32 32 33 34 34
16 15 14 14 12 10 7 5 4 2 1 1 3 5 7 9 11 13 15 16 17 20 21 22 22 23 23 24 25 25 27 29 30 31 32 32 33 34 34 34 35 36 36
15 14 14 13 13 12 9 7 5 3 2 1 2 4 6 8 10 11 12 14 15 16 18 19 20 21 21 22 23 24 25 27 29 30 31 32 34 35 35 36 37 37 38
13 13 13 12 12 11 10 8 6 5 3 1 1 3 5 6 8 10 11 12 13 14 16 17 18 19 20 20 21 23 24 26 27 29 30 31 33 34 36 37 38 38 39
12 12 12 12 11 11 10 9 7 6 5 3 1 1 3 5 7 8 10 11 12 13 15 16 17 17 18 18 20 21 22 22 25 27 29 31 32 34 35 36 38 39 39
11 11 11 11 11 10 10 9 7 6 5 4 2 1 1 3 5 7 9 9 10 12 13 14 15 16 17 17 19 20 21 22 24 25 27 29 31 32 34 36 37 38 39
10 10 10 10 9 9 9 9 8 6 5 4 3 2 1 2 3 5 7 8 9 11 12 12 13 14 15 16 17 18 19 21 23 24 25 27 28 30 32 34 35 36 37
10 10 9 9 9 8 8 8 8 6 5 5 4 3 2 2 3 4 5 7 8 10 11 12 12 12 13 14 15 15 16 17 19 21 22 24 25 27 29 30 33 34 35
10 10 9 9 8 8 8 7 7 7 6 5 4 4 4 3 3 4 5 6 8 9 10 11 12 12 13 13 14 15 16 17 18 19 20 21 23 24 26 28 30 32 34
12 11 10 9 9 8 8 7 7 7 6 6 6 5 5 5 5 5 6 7 8 9 10 11 12 13 14 14 15 15 16 17 18 18 19 20 22 23 24 25 27 29 30
13 12 11 11 10 10 9 9 8 8 7 7 7 7 7 7 7 7 8 8 9 10 11 11 12 13 14 15 16 16 17 17 18 19 19 20 21 22 24 25 26 27 28
Wind_Direction
295 290 282 275 268 261 254 249 245 243 239 234 231 231 231 232 232 230 230 230 227 226 227 227 225 223 220 215 212 209 206 202 197 193 189 186 186 188 187 185 183 184 187
300 295 289 282 273 264 255 248 244 240 237 234 231 231 230 230 230 228 227 227 225 224 224 225 225 221 219 216 213 211 209 206 202 198 195 193 192 190 190 189 188 190 192
307 300 292 284 276 266 256 249 243 239 237 233 231 230 228 228 228 226 227 225 225 225 224 224 224 221 219 217 215 213 211 210 206 204 203 202 200 196 195 197 197 198 199
313 307 299 289 279 268 257 250 243 239 235 232 229 227 226 226 226 224 225 224 223 223 223 223 223 222 218 217 216 214 213 213 212 210 209 208 206 203 203 203 203 203 205
319 313 306 297 283 269 260 253 244 239 235 231 228 226 224 222 223 224 225 224 222 222 223 222 222 221 218 217 216 215 215 214 215 215 214 212 211 209 208 207 208 209 210
326 321 312 302 287 272 263 255 244 237 232 229 227 225 222 220 221 222 222 223 221 222 222 223 220 221 219 218 217 217 217 217 218 218 218 216 216 216 215 214 214 215 216
331 328 320 308 294 279 266 256 245 236 231 228 226 224 222 221 220 220 220 221 221 221 222 222 220 221 221 219 218 218 219 220 220 221 222 221 221 221 221 221 222 222 222
334 332 328 319 305 287 271 257 244 235 232 228 225 222 220 219 219 218 217 218 219 221 222 222 221 221 221 221 221 221 222 224 223 224 224 223 225 226 225 226 226 226 227
340 338 334 329 317 297 278 259 242 231 229 226 223 221 220 217 217 217 216 217 218 220 221 222 220 220 221 222 223 223 224 225 226 226 226 227 229 229 228 230 230 231 232
344 342 341 337 329 311 287 262 240 229 226 223 220 219 219 217 217 217 217 217 218 220 221 220 219 223 224 225 225 225 225 226 227 227 228 229 230 231 232 232 233 235 236
350 348 347 345 338 326 304 264 236 229 225 221 219 218 217 217 216 216 217 218 217 219 221 222 221 223 226 227 227 227 227 227 228 229 230 231 232 233 234 234 235 237 239
356 355 354 353 350 345 327 278 236 225 223 221 218 216 215 215 216 217 218 219 219 220 222 223 223 225 227 229 230 230 229 229 230 231 232 234 234 235 235 237 239 239 240
360 360 1 1 360 355 349 314 241 220 216 216 214 212 211 212 215 218 221 221 220 220 221 222 224 224 227 230 233 233 232 233 232 233 234 235 237 237 237 239 241 241 242
5 6 8 8 9 9 9 3 302 223 213 211 208 207 208 210 212 216 218 221 220 220 221 221 223 223 227 231 233 234 234 233 233 234 235 237 239 239 240 241 241 243 244
8 9 11 12 14 16 19 18 20 191 207 208 206 206 208 209 212 214 217 220 220 220 220 221 225 227 231 233 233 234 235 233 233 236 237 238 240 241 242 243 244 245 246
11 12 14 16 16 18 20 21 14 9 229 214 212 212 212 212 213 218 220 221 221 219 220 222 225 228 231 234 236 236 236 234 236 238 240 241 242 243 245 246 246 246 247
12 15 17 20 21 21 21 21 21 20 12 211 209 211 211 212 215 218 221 220 222 222 222 225 227 229 232 235 237 238 239 239 240 241 242 244 245 246 247 247 247 248 248
11 14 17 19 21 23 23 22 22 19 12 236 220 217 213 212 216 217 218 219 223 225 227 227 229 233 235 239 241 243 241 241 243 245 247 248 248 248 248 249 249 249 250
8 11 14 16 19 21 23 25 27 23 19 350 241 230 219 214 215 216 217 221 224 227 230 232 235 239 243 244 243 244 244 245 247 249 250 251 251 251 251 251 251 251 252
4 7 10 13 16 18 22 25 29 29 28 28 22 234 225 223 220 218 218 221 226 230 233 236 239 244 247 245 245 246 247 248 249 251 253 253 254 255 254 254 253 253 254
355 1 5 8 12 14 16 19 21 25 28 29 30 352 253 234 229 225 223 224 226 228 231 237 242 246 247 247 248 249 250 252 254 256 257 256 256 255 255 255 255 255 256
343 348 353 358 2 7 10 11 13 15 16 18 19 2 315 260 236 229 228 228 229 230 232 238 243 247 250 251 252 253 254 255 257 258 259 260 259 257 257 257 256 256 256
330 335 338 341 347 352 357 1 4 2 1 3 6 355 331 297 263 242 238 237 237 237 240 244 247 250 253 254 254 255 255 256 259 260 260 261 260 258 258 259 259 259 258
316 321 323 326 329 334 340 346 352 352 345 340 340 339 331 313 291 272 261 257 253 252 252 254 254 254 256 257 259 262 262 262 263 264 262 262 262 262 261 262 263 262 262
302 307 310 311 312 315 320 327 332 335 335 330 321 318 314 302 295 289 279 271 266 262 262 260 258 258 258 259 262 265 266 266 268 269 267 265 265 266 265 265 264 264 263
289 294 298 300 301 302 304 307 311 314 316 317 314 307 302 298 291 287 285 281 276 272 267 263 263 263 263 263 265 266 267 268 268 269 270 269 268 268 268 269 270 268 265
Height
5807 5806 5804 5803 5803 5803 5803 5804 5806 5808 5810 5813 5816 5820 5824 5827 5830 5833 5836 5839 5842 5845 5848 5850 5853 5855 5858 5860 5862 5864 5866 5867 5869 5871 5872 5874 5876 5878 5879 5881 5883 5885 5887
5803 5801 5799 5798 5797 5796 5797 5798 5800 5802 5804 5807 5810 5814 5818 5822 5825 5828 5831 5835 5838 5841 5844 5847 5850 5852 5855 5858 5860 5862 5864 5866 5868 5870 5871 5873 5875 5877 5879 5881 5883 5885 5886
5798 5796 5794 5793 5791 5791 5791 5792 5793 5795 5798 5800 5804 5808 5812 5816 5820 5823 5826 5830 5834 5837 5840 5843 5846 5849 5852 5855 5857 5860 5862 5864 5866 5868 5870 5872 5874 5876 5878 5880 5882 5884 5885
5794 5791 5789 5787 5786 5785 5786 5786 5788 5789 5792 5795 5798 5802 5806 5810 5814 5818 5821 5825 5829 5833 5836 5840 5843 5846 5849 5852 5855 5857 5860 5862 5864 5867 5869 5871 5872 5874 5876 5878 5880 5882 5884
5790 5787 5784 5782 5781 5780 5781 5781 5782 5784 5786 5789 5792 5796 5800 5804 5808 5813 5816 5820 5824 5828 5832 5836 5839 5842 5845 5848 5851 5854 5857 5860 5862 5864 5867 5869 5871 5873 5875 5877 5879 5880 5882
5786 5783 5780 5778 5776 5776 5776 5776 5777 5779 5781 5784 5787 5790 5794 5798 5802 5807 5811 5815 5819 5823 5828 5831 5835 5838 5842 5845 5848 5851 5854 5857 5859 5862 5864 5866 5868 5870 5872 5874 5876 5878 5880
5783 5780 5777 5774 5773 5772 5771 5771 5772 5774 5776 5779 5782 5785 5789 5793 5797 5801 5806 5810 5814 5818 5823 5826 5830 5835 5838 5841 5844 5847 5850 5853 5856 5858 5861 5863 5866 5868 5870 5872 5874 5876 5877
5781 5777 5774 5771 5769 5768 5767 5767 5768 5769 5771 5774 5777 5780 5784 5788 5792 5796 5801 5805 5809 5813 5818 5822 5826 5830 5833 5837 5840 5843 5846 5849 5852 5854 5857 5859 5862 5864 5866 5868 5870 5872 5874
5779 5775 5772 5769 5766 5765 5764 5764 5764 5766 5768 5770 5772 5776 5779 5783 5786 5791 5796 5800 5804 5808 5813 5817 5821 5825 5829 5832 5836 5839 5842 5845 5848 5851 5853 5856 5858 5860 5863 5865 5867 5869 5871
5777 5773 5770 5767 5764 5762 5761 5761 5761 5763 5765 5766 5769 5772 5775 5778 5783 5787 5792 5796 5800 5804 5808 5812 5817 5820 5824 5827 5831 5834 5837 5841 5843 5846 5849 5851 5853 5856 5858 5861 5863 5865 5867
5776 5772 5768 5765 5762 5761 5760 5759 5760 5761 5762 5764 5766 5768 5771 5775 5779 5783 5787 5791 5795 5799 5803 5807 5811 5815 5818 5822 5825 5829 5832 5835 5838 5841 5844 5846 5849 5851 5853 5856 5858 5860 5862
5775 5771 5767 5764 5761 5760 5759 5758 5758 5759 5760 5761 5763 5765 5768 5771 5775 5779 5783 5786 5790 5795 5798 5802 5806 5810 5813 5816 5820 5823 5827 5830 5833 5836 5839 5841 5844 5846 5848 5851 5853 5855 5857
5775 5771 5767 5764 5761 5759 5758 5757 5757 5758 5759 5760 5761 5763 5766 5769 5772 5775 5779 5782 5786 5790 5794 5797 5801 5805 5808 5811 5814 5817 5821 5824 5827 5830 5833 5836 5838 5841 5843 5845 5847 5849 5851
5775 5771 5768 5764 5762 5760 5758 5757 5757 5757 5758 5758 5760 5761 5764 5766 5769 5772 5775 5778 5782 5785 5789 5793 5796 5800 5803 5806 5809 5811 5814 5817 5820 5824 5827 5829 5832 5835 5837 5839 5841 5843 5845
5776 5772 5768 5765 5763 5760 5759 5758 5757 5757 5757 5758 5759 5760 5762 5764 5767 5770 5772 5775 5779 5781 5785 5788 5791 5795 5798 5800 5803 5805 5808 5811 5814 5818 5820 5823 5826 5828 5830 5832 5835 5837 5839
5776 5773 5769 5766 5764 5762 5760 5758 5757 5757 5757 5757 5758 5759 5761 5763 5765 5767 5770 5772 5775 5778 5781 5784 5787 5790 5793 5795 5797 5799 5802 5805 5808 5811 5814 5816 5819 5821 5823 5825 5828 5830 5832
5777 5774 5771 5768 5765 5763 5761 5759 5758 5757 5757 5757 5758 5758 5760 5761 5763 5765 5767 5769 5771 5774 5777 5780 5783 5785 5788 5790 5792 5793 5796 5799 5801 5804 5807 5809 5811 5813 5816 5818 5820 5822 5823
5778 5775 5772 5769 5767 5764 5762 5760 5759 5758 5757 5757 5757 5758 5758 5759 5761 5763 5765 5767 5769 5771 5774 5776 5779 5781 5783 5785 5786 5788 5790 5792 5795 5797 5799 5801 5803 5805 5807 5809 5811 5813 5815
5779 5776 5773 5771 5768 5765 5763 5761 5759 5758 5757 5757 5757 5757 5757 5758 5759 5761 5762 5764 5766 5768 5770 5773 5774 5776 5778 5779 5781 5783 5784 5786 5788 5790 5792 5793 5795 5797 5799 5800 5802 5804 5806
5779 5776 5774 5771 5769 5766 5764 5762 5760 5759 5758 5757 5757 5756 5757 5757 5758 5759 5761 5762 5764 5765 5767 5769 5770 5772 5773 5774 5776 5777 5778 5780 5782 5783 5784 5786 5787 5788 5790 5791 5793 5794 5796
5779 5777 5774 5772 5769 5767 5765 5763 5761 5760 5758 5757 5757 5756 5756 5756 5757 5758 5759 5760 5761 5763 5764 5765 5766 5767 5768 5769 5770 5771 5773 5774 5775 5776 5777 5778 5779 5780 5781 5782 5783 5784 5785
5778 5776 5774 5772 5769 5767 5765 5763 5762 5760 5759 5758 5757 5756 5756 5756 5756 5756 5757 5758 5759 5760 5761 5762 5763 5763 5764 5765 5766 5766 5767 5768 5769 5770 5770 5770 5770 5771 5772 5773 5773 5774 5775
5777 5775 5773 5771 5769 5767 5765 5763 5762 5760 5759 5758 5757 5756 5755 5755 5755 5755 5755 5756 5756 5757 5758 5759 5759 5759 5760 5760 5761 5761 5762 5762 5762 5763 5763 5762 5762 5763 5763 5763 5764 5765 5765
5775 5773 5771 5769 5768 5766 5764 5763 5761 5760 5758 5757 5756 5755 5754 5754 5754 5754 5754 5754 5754 5754 5755 5755 5755 5755 5756 5756 5757 5757 5757 5757 5757 5757 5756 5756 5755 5755 5755 5755 5755 5755 5756
5771 5770 5768 5767 5765 5764 5763 5761 5760 5758 5757 5756 5755 5754 5753 5752 5752 5752 5751 5751 5751 5751 5751 5751 5751 5751 5752 5752 5752 5752 5752 5751 5751 5751 5750 5750 5749 5748 5748 5747 5747 5747 5747
5767 5766 5765 5764 5762 5761 5760 5759 5758 5757 5755 5754 5753 5752 5751 5750 5750 5749 5749 5748 5748 5748 5747 5747 5747 5747 5747 5747 5747 5747 5746 5746 5745 5745 5744 5744 5743 5742 5741 5740 5739 5739 5738